This demonstration page uses our WeatherBlox Daily Observations layout. Learn more.

Left ArrowRight Arrow

Hourly Observations for July 5, 2022

Temp ( °F °C ) Dew Point ( °F °C ) Humidity (%) Winds ( mph kmh ) Pressure ( in mb ) Visibility ( mi km ) Precip ( " mm )
12:56 am 00:56 undefined 82 27.6 71 21.4 69 69 SSE 6 9 29.85 1011 10 16 0.00 0.00
1:56 am 01:56 undefined 79 26 70 21.2 75 75 E 3 6 29.85 1011 10 16 0.00 0.00
2:56 am 02:56 Clear 78 25.8 69 20.8 74 74 SE 3 6 29.84 1010 10 16 0.00 0.00
3:56 am 03:56 Clear 78 25.3 69 20.5 75 75 SE 3 6 29.84 1010 10 16 0.00 0.00
4:56 am 04:56 Mostly Cloudy 77 25.2 69 20.4 75 75 S 5 7 29.85 1011 10 16 0.00 0.00
5:56 am 05:56 Mostly Cloudy 78 25.6 67 19.7 70 70 SSE 6 9 29.86 1011 10 16 0.00 0.00
6:56 am 06:56 Hazy 80 26.4 67 19.7 67 67 SSE 7 11 29.85 1011 5 8 0.00 0.00
7:04 am 07:04 Mostly Cloudy 81 27 68 20 66 66 SSE 8 13 29.85 1011 10 16 0.00 0.00
7:56 am 07:56 Mostly Cloudy 81 27.2 67 19.3 62 62 SSE 6 9 29.82 1010 10 16 0.00 0.00
8:56 am 08:56 Sunny 83 28.5 66 19.1 57 57 S 12 19 29.82 1010 10 16 0.00 0.00
9:56 am 09:56 Mostly Sunny 86 29.8 67 19.2 53 53 SSW 10 17 29.82 1010 10 16 0.00 0.00
10:56 am 10:56 Sunny 89 31.7 68 20 50 50 S 12 19 29.80 1009 10 16 0.00 0.00
11:56 am 11:56 undefined 90 32.1 68 20 49 49 S 10 17 29.80 1009 10 16 0.00 0.00
12:56 pm 12:56 Mostly Sunny 93 33.8 68 19.8 44 44 SSE 9 15 29.78 1009 10 16 0.00 0.00
1:56 pm 13:56 undefined 94 34.6 68 19.8 42 42 S 10 17 29.77 1008 10 16 0.00 0.00
2:51 pm 14:51 Hazy 97 36 68 20 39 39 S 13 20 29.75 1007 1 2 0.00 0.00
2:52 pm 14:52 Hazy 97 36 68 20 39 39 S 12 19 29.75 1007 1 2 0.00 0.00
2:56 pm 14:56 Sunny 96 35.6 68 19.9 40 40 S 12 19 29.74 1007 10 16 0.00 0.00
3:56 pm 15:56 Sunny 99 37 67 19.4 36 36 S 16 26 29.72 1007 10 16 0.00 0.00
4:56 pm 16:56 Partly Cloudy 99 37.4 69 20.6 38 38 S 10 17 29.72 1006 10 16 0.00 0.00
5:56 pm 17:56 Mostly Cloudy 95 35.2 73 22.5 48 48 SSE 10 17 29.74 1007 10 16 0.00 0.00
6:56 pm 18:56 Mostly Cloudy 94 34.2 74 23.2 53 53 Calm 29.80 1009 10 16 0.00 0.00
7:15 pm 19:15 Cloudy 81 27 66 19 62 62 NNE 23 37 29.84 1011 7 11 0.00 0.00
7:42 pm 19:42 Mostly Cloudy with Thunderstorms 75 24 70 21 83 83 N 12 19 29.85 1011 5 8 0.00 0.00
7:56 pm 19:56 Partly Cloudy with Mist and Fog and Scattered Storms 75 23.7 71 21.9 90 90 NE 7 11 29.88 1012 5 8 0.12 3.05
8:29 pm 20:29 Mostly Cloudy with Light Rain 73 23 70 21 89 89 ENE 13 20 29.88 1012 7 11 0.00 0.00
8:56 pm 20:56 Partly Cloudy with Light Rain 74 23.4 70 21.1 87 87 NE 7 11 29.89 1012 10 16 0.14 3.56
9:56 pm 21:56 Mostly Clear 74 23.2 66 19.1 78 78 ENE 9 15 29.91 1013 10 16 0.00 0.00
10:56 pm 22:56 Mostly Cloudy 74 23.4 66 18.9 76 76 ESE 3 6 29.87 1012 10 16 0.00 0.00
11:56 pm 23:56 Mostly Cloudy 74 23.4 68 19.9 81 81 ESE 5 7 29.89 1012 10 16 0.00 0.00

Powered by AerisWeather